Location: River House Observatory
(37.8577°N, 76.3548°W)
Time: 13:31:25
(UTC-04:00)

NOSS 3-1 (C) - Visible Passes

Search period start: 02 September 2014 00:00
Search period end: 12 September 2014 00:00
Orbit: 897 x 1312 km, 63.4° (Epoch: 26 August)

Date Brightness Start Highest point End Pass type
(mag) Time Alt. Az. Time Alt. Az. Time Alt. Az.
02 Sep 4.1 19:52:46 10° NNW 20:00:23 89° ENE 20:08:30 10° SSE visible
02 Sep 6.2 21:45:41 10° WNW 21:50:35 18° WSW 21:55:38 10° SW visible
03 Sep 5.7 20:59:14 10° NW 21:05:42 30° WSW 21:12:27 10° SSW visible
04 Sep 5.0 20:13:26 10° NW 20:20:42 48° WSW 20:28:21 10° S visible
05 Sep 6.5 21:22:16 10° W 21:25:32 13° WSW 21:28:51 10° SW visible
06 Sep 6.2 20:34:59 10° WNW 20:40:43 23° WSW 20:46:41 10° SSW visible
07 Sep 5.6 19:48:54 10° NW 19:55:47 37° WSW 20:03:01 10° S visible
09 Sep 6.5 20:11:03 10° WNW 20:15:43 17° WSW 20:20:30 10° SW visible
